[[{"header":{"parameterUnit":"m.s-1","parameterCategory":1,"la1":30.2991,"la2":30.254,"lo1":-89.0895,"lo2":-89.0444,"dy":0.0017,"dx":0.0017,"nx":28,"ny":28,"refTime":"2024-12-10T03:00:00:Z","depth":0,"parameterNumber":2,"parameterNumberName":"U-component_of_WINDS"},"data":[0,0,0,0,0,0,0,0,0,0,0,0,0,0,0,0,0,0,0,0,0,0,0,0,0,0,0,0,0,0,0,0,0,0,0,0,0,0,0,0,0,0,0,0,0,0,0,0,0,0,0,0,0,0,0,0,0,0,-1.3208,-1.3209,0,-1.3289,-1.329,-1.3291,-1.3332,-1.3332,-1.3332,-1.3332,-1.3416,-1.3418,-1.342,0,0,0,0,0,0,0,0,0,0,0,0,0,-1.3086,-1.3088,-1.3208,-1.3209,-1.321,-1.3289,-1.329,-1.3291,-1.3332,-1.3332,-1.3332,-1.3332,-1.3415,-1.3417,-1.342,0,0,0,0,0,0,0,0,0,0,0,0,0,-1.315,-1.3089,-1.3207,-1.324,-1.3243,-1.3289,-1.329,-1.3292,-1.3332,-1.3332,-1.3332,-1.3332,-1.3414,-1.3417,-1.342,-1.344,0,0,-1.3431,-1.3432,0,0,0,0,0,0,0,0,-1.3147,-1.3155,-1.3234,-1.3238,-1.3242,-1.3301,-1.3278,-1.3341,-1.3332,-1.3299,-1.3332,-1.3332,-1.3377,-1.3384,-1.3399,-1.3444,-1.3448,-1.3431,-1.3433,-1.3434,-1.3435,0,0,0,0,0,0,0,-1.3142,-1.3152,-1.324,-1.3235,-1.324,-1.325,-1.3259,-1.329,-1.3337,-1.3302,-1.3305,-1.3314,-1.3379,-1.3396,-1.3401,-1.3449,-1.3431,-1.3434,-1.3436,-1.3437,-1.3513,-1.3513,0,0,0,0,0,0,-1.3133,-1.3148,-1.3237,-1.3242,-1.3193,-1.3252,-1.3262,-1.3282,-1.3337,-1.3345,-1.3314,-1.3315,-1.339,-1.3397,-1.3404,-1.3431,-1.3434,-1.3437,-1.3439,-1.3513,-1.3513,-1.3514,0,0,0,0,0,0,-1.313,-1.314,-1.3234,-1.3196,-1.3209,-1.3254,-1.3276,-1.3283,-1.33,-1.3346,-1.3354,-1.3322,-1.339,-1.34,-1.3431,-1.3434,-1.3439,-1.3442,-1.3513,-1.3513,-1.3513,-1.3483,0,0,0,0,0,0,-1.3126,-1.3139,-1.3147,-1.3196,-1.321,-1.3259,-1.3276,-1.3285,-1.3305,-1.3308,-1.3355,-1.3363,-1.3391,-1.3426,-1.3434,-1.3439,-1.3444,-1.3513,-1.3513,-1.3513,-1.3484,-1.3482,-1.3481,0,0,0,0,0,-1.3122,-1.3136,-1.3147,-1.3158,-1.3222,-1.326,-1.3268,-1.33,-1.3305,-1.3314,-1.3343,-1.3362,-1.3432,-1.3428,-1.3438,-1.3444,-1.3513,-1.3513,-1.3513,-1.3485,-1.3483,-1.3481,0,0,0,0,0,0,-1.3086,-1.3143,-1.3156,-1.3186,-1.3218,-1.3266,-1.3278,-1.3296,-1.3327,-1.3328,-1.3366,-1.3377,-1.3404,-1.3427,-1.3422,-1.3465,-1.3474,-1.3477,-1.345,-1.3448,-1.3446,-1.344,-1.3447,0,0,0,0,0,-1.3082,-1.3108,-1.3156,-1.3178,-1.3193,-1.3233,-1.325,-1.3272,-1.3306,-1.332,-1.3352,-1.3384,-1.3413,-1.3432,-1.3461,-1.3488,-1.3498,-1.3496,-1.3495,-1.3493,-1.3494,-1.351,-1.3509,-1.3514,-1.3514,-1.3514,0,0,-1.3074,-1.3107,-1.3122,-1.3171,-1.3199,-1.3224,-1.3244,-1.3271,-1.329,-1.3324,-1.3355,-1.3379,-1.3418,-1.3447,-1.3461,-1.3467,-1.3495,-1.3493,-1.3491,-1.3494,-1.351,-1.3509,-1.3509,-1.3514,-1.3514,-1.3514,0,0,-1.3071,-1.31,-1.3121,-1.3147,-1.3188,-1.3214,-1.3219,-1.3265,-1.3282,-1.3314,-1.334,-1.3363,-1.3413,-1.3439,-1.3459,-1.3466,-1.3484,-1.3474,-1.3465,-1.348,-1.3479,-1.3479,-1.3481,-1.3482,-1.3475,-1.3475,-1.3475,0,-1.3056,-1.3096,-1.3129,-1.3155,-1.3176,-1.3207,-1.3228,-1.3252,-1.33,-1.3314,-1.3319,-1.3382,-1.341,-1.3445,-1.3447,-1.3462,-1.3469,-1.3469,-1.3477,-1.3477,-1.3477,-1.348,-1.348,-1.3474,-1.3474,-1.3474,-1.3474,0,-1.3075,-1.3102,-1.3114,-1.316,-1.3182,-1.3205,-1.3241,-1.326,-1.3279,-1.3304,-1.3336,-1.3371,-1.3408,-1.3418,-1.3437,-1.3455,-1.3458,-1.3469,-1.3479,-1.3475,-1.3478,-1.3479,-1.3472,-1.3472,-1.3473,-1.3473,0,0,-1.3054,-1.3116,-1.312,-1.3141,-1.3187,-1.3209,-1.3233,-1.3269,-1.3284,-1.3316,-1.3337,-1.3378,-1.3389,-1.3411,-1.3434,-1.3446,-1.3449,-1.3457,-1.3458,-1.3454,-1.3471,-1.3462,-1.3462,-1.3461,-1.3461,-1.3461,-1.3468,0,-1.3058,-1.3103,-1.3133,-1.3166,-1.3192,-1.3221,-1.3242,-1.3273,-1.3297,-1.3322,-1.3348,-1.3377,-1.3389,-1.3403,-1.3417,-1.3445,-1.3453,-1.3445,-1.3481,-1.3482,-1.347,-1.3464,-1.3455,-1.3459,-1.3469,-1.3469,-1.3469,0,-1.3069,-1.31,-1.3135,-1.3178,-1.319,-1.3209,-1.3244,-1.3267,-1.3302,-1.3319,-1.3343,-1.3366,-1.3392,-1.3399,-1.3436,-1.343,-1.3446,-1.3463,-1.3463,-1.3468,-1.3475,-1.3469,-1.3461,-1.3462,-1.3472,-1.3471,-1.3471,0,-1.305,-1.31,-1.3128,-1.3145,-1.3195,-1.3207,-1.3229,-1.3264,-1.3283,-1.3314,-1.3327,-1.336,-1.3378,-1.3403,-1.3434,-1.3436,-1.3467,-1.3477,-1.3482,-1.3481,-1.3487,-1.3487,-1.3482,-1.3497,-1.3497,-1.3497,-1.3497,0,-1.3052,-1.3073,-1.312,-1.3137,-1.316,-1.3194,-1.3217,-1.3241,-1.3272,-1.3294,-1.3321,-1.3341,-1.338,-1.3405,-1.3429,-1.3456,-1.3464,-1.3478,-1.3484,-1.3475,-1.3473,-1.3487,-1.3487,-1.3497,-1.3497,-1.3497,-1.3497,0,-1.3035,-1.3067,-1.3099,-1.3144,-1.3156,-1.3172,-1.321,-1.3228,-1.3253,-1.328,-1.3288,-1.3328,-1.3358,-1.3391,-1.3433,-1.3449,-1.3474,-1.3483,-1.3462,-1.3466,-1.3469,-1.3468,-1.3473,-1.3476,-1.3488,-1.3488,-1.3488,0,-1.3034,-1.3051,-1.3097,-1.3114,-1.3135,-1.3161,-1.3181,-1.3215,-1.3234,-1.3275,-1.3287,-1.3319,-1.3347,-1.3394,-1.3426,-1.3458,-1.3468,-1.3468,-1.3473,-1.3464,-1.3468,-1.3467,-1.3468,-1.3466,-1.3466,-1.3465,-1.3465,0,-1.303,-1.3045,-1.3072,-1.3105,-1.3128,-1.3155,-1.3184,-1.3196,-1.3235,-1.3255,-1.3287,-1.3308,-1.335,-1.3382,-1.3417,-1.344,-1.3459,-1.3463,-1.3466,-1.3457,-1.3445,-1.3452,-1.3458,-1.3463,-1.3463,-1.3463,-1.3463,-1.3464,-1.3021,-1.3037,-1.3072,-1.3101,-1.3126,-1.3152,-1.317,-1.3197,-1.3224,-1.3261,-1.3279,-1.331,-1.3344,-1.3393,-1.3415,-1.3439,-1.3445,-1.3449,-1.345,-1.3451,-1.3449,-1.3441,-1.3446,-1.3446,-1.3446,-1.3446,-1.3446,0,-1.3018,-1.3041,-1.3068,-1.3107,-1.313,-1.3145,-1.3177,-1.3196,-1.3223,-1.3252,-1.3279,-1.3314,-1.3345,-1.3379,-1.3412,-1.3425,-1.3435,-1.3433,-1.3432,-1.3437,-1.3441,-1.3436,-1.3424,-1.3424,-1.3424,-1.3424,-1.3424,-1.3424,-1.3019,-1.3046,-1.3065,-1.3104,-1.3128,-1.3158,-1.3175,-1.3199,-1.3223,-1.3261,-1.3287,-1.3309,-1.334,-1.3375,-1.3404,-1.3413,-1.3424,-1.3419,-1.3431,-1.3435,-1.3437,-1.3438,-1.3433,-1.3421,-1.3421,-1.3424,-1.3424,-1.3424]},{"header":{"parameterUnit":"m.s-1","parameterCategory":1,"la1":30.2991,"la2":30.254,"lo1":-89.0895,"lo2":-89.0444,"dy":0.0017,"dx":0.0017,"nx":28,"ny":28,"refTime":"2024-12-10T03:00:00:Z","depth":0,"parameterNumber":3,"parameterNumberName":"V-component_of_WINDS"},"data":[0,0,0,0,0,0,0,0,0,0,0,0,0,0,0,0,0,0,0,0,0,0,0,0,0,0,0,0,0,0,0,0,0,0,0,0,0,0,0,0,0,0,0,0,0,0,0,0,0,0,0,0,0,0,0,0,0,0,3.2673,3.2674,0,3.2752,3.2753,3.2754,3.2741,3.274,3.2739,3.2737,3.2815,3.2819,3.2822,0,0,0,0,0,0,0,0,0,0,0,0,0,3.2508,3.2511,3.2673,3.2674,3.2675,3.2752,3.2753,3.2754,3.2742,3.274,3.2738,3.2737,3.2814,3.2818,3.2822,0,0,0,0,0,0,0,0,0,0,0,0,0,3.2582,3.2512,3.2673,3.2678,3.2679,3.2752,3.2753,3.2755,3.2742,3.274,3.2738,3.2736,3.2813,3.2818,3.2823,3.2894,0,0,3.2838,3.284,0,0,0,0,0,0,0,0,3.2578,3.2589,3.2676,3.2678,3.2679,3.2735,3.2724,3.2801,3.2742,3.2718,3.2737,3.2735,3.279,3.2797,3.2816,3.2898,3.2901,3.2839,3.2842,3.2844,3.2845,0,0,0,0,0,0,0,3.2573,3.2585,3.2704,3.2677,3.2679,3.2675,3.2684,3.2738,3.2764,3.272,3.2719,3.2729,3.279,3.2811,3.2818,3.2902,3.2838,3.2843,3.2846,3.2848,3.3048,3.305,0,0,0,0,0,0,3.2567,3.2581,3.2702,3.2707,3.2623,3.268,3.2689,3.2719,3.2764,3.2769,3.2731,3.2728,3.2804,3.2812,3.282,3.2909,3.2844,3.2848,3.2851,3.3046,3.3049,3.3051,0,0,0,0,0,0,3.2563,3.2578,3.2698,3.2644,3.2659,3.2685,3.2718,3.2722,3.2743,3.2772,3.2776,3.2747,3.2802,3.2813,3.2877,3.2911,3.2851,3.2855,3.3043,3.3047,3.305,3.3085,0,0,0,0,0,0,3.2559,3.2577,3.2605,3.2644,3.2662,3.2754,3.272,3.2725,3.2752,3.2749,3.2789,3.2793,3.2802,3.2869,3.2882,3.2917,3.2859,3.304,3.3045,3.3049,3.3081,3.3089,3.3096,0,0,0,0,0,3.2553,3.261,3.2606,3.2621,3.2698,3.2756,3.2766,3.2776,3.2754,3.2783,3.2801,3.2792,3.2905,3.2876,3.289,3.2927,3.3038,3.3043,3.3048,3.3077,3.3087,3.3096,0,0,0,0,0,0,3.2573,3.2616,3.2612,3.2684,3.2717,3.2754,3.279,3.2786,3.2825,3.2821,3.2829,3.2838,3.2903,3.2921,3.2887,3.2999,3.2968,3.2977,3.2986,3.2995,3.3003,3.2998,3.2863,0,0,0,0,0,3.2586,3.2631,3.2665,3.2726,3.2743,3.2764,3.279,3.2794,3.2828,3.2842,3.2865,3.2897,3.294,3.2968,3.3009,3.3082,3.3091,3.3115,3.3122,3.3129,3.3136,3.3178,3.3189,3.3068,3.3068,3.3068,0,0,3.2613,3.2642,3.267,3.2731,3.2757,3.2803,3.2775,3.2825,3.2859,3.2849,3.2911,3.2929,3.2965,3.3034,3.3066,3.3051,3.3171,3.3135,3.314,3.3144,3.3184,3.3196,3.3206,3.3072,3.3071,3.307,0,0,3.2687,3.2713,3.2767,3.2794,3.2834,3.2848,3.2861,3.2899,3.2911,3.2973,3.2967,3.3006,3.308,3.3107,3.313,3.3214,3.3207,3.3227,3.3268,3.3308,3.3318,3.3326,3.3358,3.3369,3.3234,3.3234,3.3234,0,3.2716,3.2787,3.2795,3.2847,3.2874,3.2867,3.2922,3.2947,3.2998,3.3016,3.2999,3.3092,3.3116,3.3192,3.3213,3.3231,3.3246,3.3224,3.3316,3.3324,3.3332,3.3363,3.3374,3.3236,3.3236,3.3236,3.3235,0,3.2821,3.2869,3.2908,3.2959,3.299,3.3043,3.3059,3.3089,3.3091,3.3106,3.3169,3.3198,3.3245,3.3263,3.3264,3.3339,3.3329,3.3314,3.3283,3.3346,3.3375,3.3386,3.324,3.3239,3.3238,3.3237,0,0,3.2911,3.2967,3.2981,3.3005,3.3048,3.3086,3.3137,3.3185,3.3211,3.3246,3.329,3.3352,3.3339,3.3365,3.3369,3.3404,3.3471,3.3384,3.3385,3.3401,3.3557,3.357,3.3583,3.3465,3.3467,3.3469,3.3554,0,3.2991,3.3085,3.3094,3.3178,3.3223,3.3217,3.3262,3.3293,3.3308,3.3348,3.3364,3.3409,3.3387,3.3403,3.3437,3.3455,3.3502,3.3449,3.3507,3.3509,3.3501,3.3598,3.3612,3.3691,3.3565,3.3567,3.3569,0,3.3097,3.3137,3.3226,3.3264,3.3283,3.3324,3.3369,3.3407,3.3442,3.345,3.348,3.3479,3.3532,3.3498,3.3571,3.3535,3.3558,3.3571,3.3574,3.3582,3.3544,3.361,3.3716,3.3729,3.3586,3.3585,3.3583,0,3.3157,3.3232,3.3296,3.3316,3.3361,3.339,3.341,3.3443,3.3471,3.3509,3.3528,3.3571,3.3595,3.3628,3.3639,3.3613,3.3712,3.3679,3.3721,3.3721,3.3744,3.3743,3.3858,3.3756,3.3756,3.3755,3.3755,0,3.3247,3.3302,3.3324,3.3363,3.3424,3.3433,3.3493,3.3511,3.3541,3.3583,3.3578,3.3618,3.3628,3.367,3.3678,3.3738,3.3748,3.3757,3.3759,3.3759,3.3758,3.3776,3.3772,3.3759,3.3758,3.3757,3.3757,0,3.3326,3.3342,3.3411,3.3449,3.3459,3.3503,3.3535,3.3572,3.3586,3.3639,3.3652,3.3674,3.3722,3.3735,3.3792,3.3798,3.387,3.3865,3.3859,3.3859,3.3902,3.3899,3.4035,3.4054,3.3936,3.3937,3.3938,0,3.3383,3.3426,3.3468,3.3497,3.3518,3.3564,3.3593,3.3603,3.3633,3.3676,3.3709,3.3756,3.3796,3.3872,3.3893,3.3937,3.3935,3.3979,3.3941,3.394,3.3938,3.3936,3.3941,3.3987,3.3988,3.3989,3.399,0,3.3484,3.3491,3.3533,3.3579,3.3615,3.3651,3.3685,3.3708,3.3723,3.3757,3.3807,3.3838,3.3896,3.3944,3.3989,3.4008,3.4002,3.4002,3.4014,3.4016,3.4011,3.4017,3.3881,3.3999,3.3998,3.3997,3.3997,3.3997,3.3556,3.3594,3.363,3.3678,3.3705,3.3738,3.3776,3.3794,3.3837,3.3887,3.3889,3.3944,3.3977,3.4036,3.4058,3.41,3.4087,3.4105,3.4109,3.4114,3.4119,3.4003,3.4108,3.4107,3.4107,3.4107,3.4107,0,3.3659,3.3682,3.3726,3.3775,3.3813,3.3804,3.3842,3.3874,3.3922,3.3954,3.3993,3.4051,3.4097,3.4121,3.4166,3.4196,3.4194,3.4208,3.4207,3.4212,3.4127,3.4113,3.4208,3.4208,3.4208,3.4208,3.4208,3.4208,3.3717,3.3782,3.3792,3.387,3.3892,3.3946,3.3969,3.3999,3.4025,3.409,3.4129,3.4144,3.4173,3.4221,3.4263,3.4268,3.4286,3.4302,3.4306,3.4228,3.4217,3.4208,3.4194,3.4305,3.4305,3.4387,3.4388,3.4389]}]]